• In Hungary
  • List of Countries
  • For 7 days
  • Water Temperature
  • Satellite Maps
  • Weather Map
  • News
  • Weather Widgets
  • user-avatar
    Login

    Hourly Weather Ibb

    Today, 25 June, Monday

    Time Temperature Precipitation Wind Pressure Humidity
    00:00 +23°C° 0 mm 1 mps 595 mmHg 52%
    01:00 +23°C° 0 mm 1 mps 595 mmHg 52%
    02:00 +23°C° 0 mm 1 mps 594 mmHg 52%
    03:00 +22°C° 0 mm 1 mps 594 mmHg 52%
    04:00 +22°C° 0 mm 1 mps 594 mmHg 54%
    05:00 +22°C° 0 mm 1 mps 594 mmHg 56%
    06:00 +21°C° 0 mm 1 mps 594 mmHg 58%
    07:00 +22°C° 0 mm 1 mps 595 mmHg 51%
    08:00 +24°C° 0 mm 1 mps 596 mmHg 45%
    09:00 +25°C° 0 mm 1 mps 596 mmHg 39%
    10:00 +26°C° 0 mm 2 mps 597 mmHg 36%
    11:00 +27°C° 0 mm 3 mps 597 mmHg 33%
    12:00 +28°C° 0 mm 3 mps 597 mmHg 29%
    13:00 +27°C° 1.6 mm 3 mps 597 mmHg 35%
    14:00 +26°C° 1.6 mm 3 mps 596 mmHg 40%
    15:00 +26°C° 1.6 mm 3 mps 595 mmHg 45%
    16:00 +25°C° 2.8 mm 3 mps 595 mmHg 48%
    17:00 +24°C° 2.8 mm 3 mps 595 mmHg 51%
    18:00 +24°C° 2.8 mm 3 mps 595 mmHg 54%
    19:00 +22°C° 1.2 mm 3 mps 595 mmHg 56%
    20:00 +23°C° 1.2 mm 2 mps 595 mmHg 57%
    21:00 +23°C° 1.2 mm 2 mps 595 mmHg 58%
    22:00 +23°C° 0 mm 1 mps 595 mmHg 57%
    23:00 +23°C° 0 mm 1 mps 595 mmHg 56%

    Tomorrow, 26 June, Tuesday

    Time Temperature Precipitation Wind Pressure Humidity
    00:00 +23°C° 0 mm 1 mps 595 mmHg 54%
    01:00 +22°C° 0 mm 1 mps 594 mmHg 53%
    02:00 +22°C° 0 mm 1 mps 594 mmHg 53%
    03:00 +22°C° 0 mm 1 mps 594 mmHg 52%
    04:00 +22°C° 0 mm 1 mps 594 mmHg 53%
    05:00 +21°C° 0 mm 1 mps 594 mmHg 54%
    06:00 +21°C° 0 mm 1 mps 594 mmHg 56%
    07:00 +22°C° 0 mm 1 mps 595 mmHg 51%
    08:00 +23°C° 0 mm 1 mps 596 mmHg 46%
    09:00 +24°C° 0 mm 1 mps 596 mmHg 41%
    10:00 +25°C° 0 mm 2 mps 597 mmHg 39%
    11:00 +26°C° 0 mm 2 mps 597 mmHg 36%
    12:00 +28°C° 0 mm 3 mps 597 mmHg 33%
    13:00 +27°C° 0.1 mm 3 mps 596 mmHg 35%
    14:00 +27°C° 0.1 mm 3 mps 596 mmHg 37%
    15:00 +26°C° 0.1 mm 3 mps 595 mmHg 40%
    16:00 +25°C° 0.8 mm 3 mps 595 mmHg 43%
    17:00 +25°C° 0.8 mm 2 mps 595 mmHg 47%
    18:00 +24°C° 0.8 mm 2 mps 594 mmHg 50%
    19:00 +23°C° 0.7 mm 2 mps 594 mmHg 54%
    20:00 +23°C° 0.7 mm 2 mps 595 mmHg 57%
    21:00 +21°C° 0.7 mm 2 mps 595 mmHg 60%
    22:00 +21°C° 0.3 mm 2 mps 595 mmHg 58%
    23:00 +21°C° 0.3 mm 2 mps 595 mmHg 56%

    Day after tomorrow, 27 June, Wednesday

    Time Temperature Precipitation Wind Pressure Humidity
    00:00 +21°C° 0.3 mm 2 mps 595 mmHg 53%
    01:00 +21°C° 0 mm 2 mps 594 mmHg 53%
    02:00 +21°C° 0 mm 2 mps 594 mmHg 52%
    03:00 +22°C° 0 mm 1 mps 594 mmHg 52%
    04:00 +22°C° 0 mm 1 mps 594 mmHg 54%
    05:00 +21°C° 0 mm 1 mps 594 mmHg 55%
    06:00 +21°C° 0 mm 1 mps 594 mmHg 57%
    07:00 +22°C° 0 mm 1 mps 595 mmHg 50%
    08:00 +24°C° 0 mm 1 mps 596 mmHg 44%
    09:00 +25°C° 0 mm 1 mps 597 mmHg 37%
    10:00 +26°C° 0 mm 2 mps 597 mmHg 35%
    11:00 +27°C° 0 mm 2 mps 597 mmHg 33%
    12:00 +28°C° 0 mm 3 mps 597 mmHg 31%
    13:00 +27°C° 0.5 mm 3 mps 597 mmHg 35%
    14:00 +26°C° 0.5 mm 3 mps 596 mmHg 38%
    15:00 +26°C° 0.5 mm 4 mps 595 mmHg 41%
    16:00 +25°C° 0.5 mm 3 mps 595 mmHg 44%
    17:00 +24°C° 0.5 mm 2 mps 595 mmHg 47%
    18:00 +23°C° 0.5 mm 1 mps 594 mmHg 49%
    19:00 +23°C° 0.8 mm 2 mps 594 mmHg 51%
    20:00 +23°C° 0.8 mm 2 mps 595 mmHg 52%
    21:00 +22°C° 0.8 mm 3 mps 595 mmHg 53%
    22:00 +22°C° 0.3 mm 3 mps 595 mmHg 52%
    23:00 +23°C° 0.3 mm 2 mps 595 mmHg 51%

    28 June, Thursday

    Time Temperature Precipitation Wind Pressure Humidity
    00:00 +23°C° 0.3 mm 2 mps 594 mmHg 49%
    01:00 +23°C° 0 mm 2 mps 594 mmHg 48%
    02:00 +23°C° 0 mm 2 mps 594 mmHg 47%
    03:00 +23°C° 0 mm 2 mps 594 mmHg 46%
    04:00 +22°C° 0 mm 1 mps 594 mmHg 47%
    05:00 +22°C° 0 mm 1 mps 594 mmHg 48%
    06:00 +22°C° 0 mm 1 mps 594 mmHg 49%
    07:00 +23°C° 0 mm 1 mps 595 mmHg 43%
    08:00 +25°C° 0 mm 1 mps 596 mmHg 37%
    09:00 +26°C° 0 mm 2 mps 596 mmHg 30%
    10:00 +27°C° 0 mm 2 mps 596 mmHg 29%
    11:00 +28°C° 0 mm 3 mps 596 mmHg 28%
    12:00 +28°C° 0 mm 3 mps 596 mmHg 27%
    13:00 +28°C° 0.2 mm 3 mps 596 mmHg 29%
    14:00 +28°C° 0.2 mm 4 mps 595 mmHg 30%
    15:00 +28°C° 0.2 mm 4 mps 595 mmHg 32%
    16:00 +27°C° 0.4 mm 3 mps 595 mmHg 35%
    17:00 +26°C° 0.4 mm 3 mps 594 mmHg 38%
    18:00 +25°C° 0.4 mm 3 mps 594 mmHg 41%
    19:00 +25°C° 0 mm 3 mps 594 mmHg 42%
    20:00 +25°C° 0 mm 2 mps 595 mmHg 42%
    21:00 +25°C° 0 mm 2 mps 595 mmHg 43%
    22:00 +24°C° 0 mm 2 mps 595 mmHg 44%
    23:00 +24°C° 0 mm 1 mps 594 mmHg 45%

    29 June, Friday

    Time Temperature Precipitation Wind Pressure Humidity
    00:00 +24°C° 0 mm 1 mps 594 mmHg 46%
    01:00 +24°C° 0 mm 1 mps 594 mmHg 45%
    02:00 +23°C° 0 mm 1 mps 593 mmHg 44%
    03:00 +23°C° 0 mm 1 mps 593 mmHg 44%
    04:00 +23°C° 0 mm 1 mps 593 mmHg 44%
    05:00 +22°C° 0 mm 1 mps 593 mmHg 44%
    06:00 +20°C° 0 mm 0 mps 593 mmHg 44%
    07:00 +24°C° 0 mm 1 mps 594 mmHg 39%
    08:00 +25°C° 0 mm 1 mps 595 mmHg 33%
    09:00 +26°C° 0 mm 1 mps 596 mmHg 28%
    10:00 +27°C° 0 mm 2 mps 596 mmHg 27%
    11:00 +28°C° 0 mm 2 mps 596 mmHg 27%
    12:00 +29°C° 0 mm 3 mps 595 mmHg 26%
    13:00 +29°C° 0 mm 3 mps 595 mmHg 27%
    14:00 +29°C° 0 mm 4 mps 594 mmHg 28%
    15:00 +29°C° 0 mm 4 mps 594 mmHg 29%
    16:00 +28°C° 0 mm 3 mps 594 mmHg 31%
    17:00 +28°C° 0 mm 3 mps 594 mmHg 33%
    18:00 +27°C° 0 mm 3 mps 593 mmHg 35%
    19:00 +27°C° 0 mm 3 mps 593 mmHg 38%
    20:00 +26°C° 0 mm 2 mps 594 mmHg 41%
    21:00 +25°C° 0 mm 2 mps 594 mmHg 44%
    22:00 +25°C° 0 mm 2 mps 593 mmHg 46%
    23:00 +25°C° 0 mm 2 mps 593 mmHg 47%

    30 June, Saturday

    Time Temperature Precipitation Wind Pressure Humidity
    00:00 +24°C° 0 mm 1 mps 593 mmHg 49%
    01:00 +24°C° 0 mm 1 mps 592 mmHg 49%
    02:00 +24°C° 0 mm 1 mps 592 mmHg 49%
    03:00 +23°C° 0 mm 2 mps 592 mmHg 49%
    04:00 +23°C° 0 mm 1 mps 592 mmHg 50%
    05:00 +23°C° 0 mm 1 mps 592 mmHg 50%
    06:00 +22°C° 0 mm 1 mps 592 mmHg 51%
    07:00 +24°C° 0 mm 2 mps 593 mmHg 45%
    08:00 +25°C° 0 mm 2 mps 594 mmHg 39%
    09:00 +26°C° 0 mm 2 mps 595 mmHg 33%
    10:00 +27°C° 0 mm 3 mps 595 mmHg 30%
    11:00 +28°C° 0 mm 3 mps 595 mmHg 27%
    12:00 +29°C° 0 mm 4 mps 595 mmHg 24%
    13:00 +29°C° 0 mm 4 mps 594 mmHg 24%
    14:00 +29°C° 0 mm 5 mps 594 mmHg 24%
    15:00 +29°C° 0 mm 5 mps 593 mmHg 24%
    16:00 +28°C° 0 mm 5 mps 593 mmHg 26%
    17:00 +27°C° 0 mm 4 mps 593 mmHg 29%
    18:00 +27°C° 0 mm 4 mps 593 mmHg 31%
    19:00 +26°C° 0 mm 3 mps 593 mmHg 34%
    20:00 +25°C° 0 mm 3 mps 593 mmHg 38%
    21:00 +24°C° 0 mm 2 mps 593 mmHg 41%
    22:00 +24°C° 0 mm 2 mps 593 mmHg 42%
    23:00 +24°C° 0 mm 2 mps 593 mmHg 43%
    Show more